﻿測定場所 (Monitoring sites),日付 (Measurement date),時間 (Measurement time),線量率 最大値 (max) μGy/h,線量率 最小値 (min) μGy/h,線量率 平均値 (average) μGy/h,
足立 (Adachi),2017-07-09,23:01～24:00,0.0341,0.0305,0.0325,
足立 (Adachi),2017-07-09,22:01～23:00,0.0349,0.0305,0.0327,
足立 (Adachi),2017-07-09,21:01～22:00,0.0353,0.0304,0.0328,
足立 (Adachi),2017-07-09,20:01～21:00,0.0346,0.0309,0.0328,
足立 (Adachi),2017-07-09,19:01～20:00,0.0348,0.0307,0.0326,
足立 (Adachi),2017-07-09,18:01～19:00,0.0346,0.0307,0.0330,
足立 (Adachi),2017-07-09,17:01～18:00,0.0351,0.0306,0.0328,
足立 (Adachi),2017-07-09,16:01～17:00,0.0345,0.0315,0.0332,
足立 (Adachi),2017-07-09,15:01～16:00,0.0352,0.0309,0.0330,
足立 (Adachi),2017-07-09,14:01～15:00,0.0358,0.0311,0.0333,
足立 (Adachi),2017-07-09,13:01～14:00,0.0345,0.0310,0.0328,
足立 (Adachi),2017-07-09,12:01～13:00,0.0350,0.0310,0.0330,
足立 (Adachi),2017-07-09,11:01～12:00,0.0361,0.0315,0.0336,
足立 (Adachi),2017-07-09,10:01～11:00,0.0358,0.0315,0.0336,
足立 (Adachi),2017-07-09,09:01～10:00,0.0353,0.0307,0.0336,
足立 (Adachi),2017-07-09,08:01～09:00,0.0354,0.0313,0.0333,
足立 (Adachi),2017-07-09,07:01～08:00,0.0357,0.0319,0.0339,
足立 (Adachi),2017-07-09,06:01～07:00,0.0354,0.0321,0.0335,
足立 (Adachi),2017-07-09,05:01～06:00,0.0359,0.0310,0.0333,
足立 (Adachi),2017-07-09,04:01～05:00,0.0356,0.0312,0.0332,
足立 (Adachi),2017-07-09,03:01～04:00,0.0353,0.0311,0.0332,
足立 (Adachi),2017-07-09,02:01～03:00,0.0345,0.0313,0.0331,
足立 (Adachi),2017-07-09,01:01～02:00,0.0350,0.0306,0.0329,
足立 (Adachi),2017-07-09,00:01～01:00,0.0352,0.0318,0.0329,
足立 (Adachi),2017-07-08,23:01～24:00,0.0365,0.0311,0.0329,
足立 (Adachi),2017-07-08,22:01～23:00,0.0346,0.0308,0.0329,
足立 (Adachi),2017-07-08,21:01～22:00,0.0349,0.0307,0.0328,
足立 (Adachi),2017-07-08,20:01～21:00,0.0352,0.0307,0.0329,
足立 (Adachi),2017-07-08,19:01～20:00,0.0349,0.0310,0.0327,
足立 (Adachi),2017-07-08,18:01～19:00,0.0346,0.0303,0.0330,
足立 (Adachi),2017-07-08,17:01～18:00,0.0349,0.0304,0.0329,
足立 (Adachi),2017-07-08,16:01～17:00,0.0354,0.0313,0.0329,
足立 (Adachi),2017-07-08,15:01～16:00,0.0346,0.0310,0.0328,
足立 (Adachi),2017-07-08,14:01～15:00,0.0349,0.0312,0.0328,
足立 (Adachi),2017-07-08,13:01～14:00,0.0353,0.0312,0.0331,
足立 (Adachi),2017-07-08,12:01～13:00,0.0349,0.0309,0.0331,
足立 (Adachi),2017-07-08,11:01～12:00,0.0354,0.0308,0.0330,
足立 (Adachi),2017-07-08,10:01～11:00,0.0346,0.0312,0.0329,
足立 (Adachi),2017-07-08,09:01～10:00,0.0353,0.0306,0.0331,
足立 (Adachi),2017-07-08,08:01～09:00,0.0351,0.0311,0.0330,
足立 (Adachi),2017-07-08,07:01～08:00,0.0347,0.0312,0.0329,
足立 (Adachi),2017-07-08,06:01～07:00,0.0352,0.0311,0.0330,
足立 (Adachi),2017-07-08,05:01～06:00,0.0353,0.0305,0.0330,
足立 (Adachi),2017-07-08,04:01～05:00,0.0348,0.0315,0.0329,
足立 (Adachi),2017-07-08,03:01～04:00,0.0353,0.0307,0.0327,
足立 (Adachi),2017-07-08,02:01～03:00,0.0342,0.0307,0.0328,
足立 (Adachi),2017-07-08,01:01～02:00,0.0351,0.0307,0.0329,
足立 (Adachi),2017-07-08,00:01～01:00,0.0341,0.0308,0.0327,
足立 (Adachi),2017-07-07,23:01～24:00,0.0344,0.0302,0.0326,
足立 (Adachi),2017-07-07,22:01～23:00,0.0348,0.0311,0.0328,
足立 (Adachi),2017-07-07,21:01～22:00,0.0340,0.0298,0.0324,
足立 (Adachi),2017-07-07,20:01～21:00,0.0348,0.0300,0.0328,
足立 (Adachi),2017-07-07,19:01～20:00,0.0342,0.0306,0.0325,
足立 (Adachi),2017-07-07,18:01～19:00,0.0349,0.0303,0.0324,
足立 (Adachi),2017-07-07,17:01～18:00,0.0348,0.0307,0.0326,
足立 (Adachi),2017-07-07,16:01～17:00,0.0352,0.0306,0.0324,
足立 (Adachi),2017-07-07,15:01～16:00,0.0343,0.0300,0.0322,
足立 (Adachi),2017-07-07,14:01～15:00,0.0342,0.0304,0.0323,
足立 (Adachi),2017-07-07,13:01～14:00,0.0340,0.0306,0.0321,
足立 (Adachi),2017-07-07,12:01～13:00,0.0335,0.0301,0.0319,
足立 (Adachi),2017-07-07,11:01～12:00,0.0338,0.0305,0.0323,
足立 (Adachi),2017-07-07,10:01～11:00,0.0332,0.0300,0.0319,
足立 (Adachi),2017-07-07,09:01～10:00,0.0336,0.0306,0.0322,
足立 (Adachi),2017-07-07,08:01～09:00,0.0343,0.0292,0.0320,
足立 (Adachi),2017-07-07,07:01～08:00,0.0336,0.0297,0.0317,
足立 (Adachi),2017-07-07,06:01～07:00,0.0342,0.0297,0.0319,
足立 (Adachi),2017-07-07,05:01～06:00,0.0342,0.0303,0.0320,
足立 (Adachi),2017-07-07,04:01～05:00,0.0342,0.0305,0.0322,
足立 (Adachi),2017-07-07,03:01～04:00,0.0337,0.0304,0.0320,
足立 (Adachi),2017-07-07,02:01～03:00,0.0337,0.0288,0.0318,
足立 (Adachi),2017-07-07,01:01～02:00,0.0335,0.0301,0.0317,
足立 (Adachi),2017-07-07,00:01～01:00,0.0343,0.0302,0.0321,
足立 (Adachi),2017-07-06,23:01～24:00,0.0349,0.0295,0.0320,
足立 (Adachi),2017-07-06,22:01～23:00,0.0340,0.0306,0.0320,
足立 (Adachi),2017-07-06,21:01～22:00,0.0344,0.0303,0.0324,
足立 (Adachi),2017-07-06,20:01～21:00,0.0350,0.0304,0.0322,
足立 (Adachi),2017-07-06,19:01～20:00,0.0337,0.0299,0.0319,
足立 (Adachi),2017-07-06,18:01～19:00,0.0339,0.0293,0.0318,
足立 (Adachi),2017-07-06,17:01～18:00,0.0328,0.0296,0.0309,
足立 (Adachi),2017-07-06,16:01～17:00,0.0334,0.0296,0.0312,
足立 (Adachi),2017-07-06,15:01～16:00,0.0330,0.0293,0.0310,
足立 (Adachi),2017-07-06,14:01～15:00,0.0333,0.0297,0.0311,
足立 (Adachi),2017-07-06,13:01～14:00,0.0336,0.0293,0.0314,
足立 (Adachi),2017-07-06,12:01～13:00,0.0343,0.0289,0.0313,
足立 (Adachi),2017-07-06,11:01～12:00,0.0342,0.0293,0.0319,
足立 (Adachi),2017-07-06,10:01～11:00,0.0336,0.0302,0.0316,
足立 (Adachi),2017-07-06,09:01～10:00,0.0338,0.0299,0.0317,
足立 (Adachi),2017-07-06,08:01～09:00,0.0336,0.0295,0.0315,
足立 (Adachi),2017-07-06,07:01～08:00,0.0343,0.0299,0.0318,
足立 (Adachi),2017-07-06,06:01～07:00,0.0340,0.0295,0.0318,
足立 (Adachi),2017-07-06,05:01～06:00,0.0345,0.0298,0.0318,
足立 (Adachi),2017-07-06,04:01～05:00,0.0339,0.0304,0.0320,
足立 (Adachi),2017-07-06,03:01～04:00,0.0338,0.0303,0.0319,
足立 (Adachi),2017-07-06,02:01～03:00,0.0334,0.0305,0.0319,
足立 (Adachi),2017-07-06,01:01～02:00,0.0340,0.0302,0.0321,
足立 (Adachi),2017-07-06,00:01～01:00,0.0346,0.0302,0.0323,
足立 (Adachi),2017-07-05,23:01～24:00,0.0352,0.0314,0.0333,
足立 (Adachi),2017-07-05,22:01～23:00,0.0351,0.0316,0.0335,
足立 (Adachi),2017-07-05,21:01～22:00,0.0343,0.0299,0.0322,
足立 (Adachi),2017-07-05,20:01～21:00,0.0340,0.0297,0.0317,
足立 (Adachi),2017-07-05,19:01～20:00,0.0339,0.0291,0.0315,
足立 (Adachi),2017-07-05,18:01～19:00,0.0339,0.0298,0.0319,
足立 (Adachi),2017-07-05,17:01～18:00,0.0339,0.0298,0.0317,
足立 (Adachi),2017-07-05,16:01～17:00,0.0337,0.0298,0.0317,
足立 (Adachi),2017-07-05,15:01～16:00,0.0336,0.0297,0.0316,
足立 (Adachi),2017-07-05,14:01～15:00,0.0343,0.0292,0.0316,
足立 (Adachi),2017-07-05,13:01～14:00,0.0330,0.0297,0.0315,
足立 (Adachi),2017-07-05,12:01～13:00,0.0336,0.0295,0.0314,
足立 (Adachi),2017-07-05,11:01～12:00,0.0339,0.0290,0.0312,
足立 (Adachi),2017-07-05,10:01～11:00,0.0327,0.0288,0.0313,
足立 (Adachi),2017-07-05,09:01～10:00,0.0324,0.0293,0.0310,
足立 (Adachi),2017-07-05,08:01～09:00,0.0328,0.0289,0.0311,
足立 (Adachi),2017-07-05,07:01～08:00,0.0332,0.0295,0.0316,
足立 (Adachi),2017-07-05,06:01～07:00,0.0334,0.0301,0.0316,
足立 (Adachi),2017-07-05,05:01～06:00,0.0332,0.0297,0.0313,
足立 (Adachi),2017-07-05,04:01～05:00,0.0334,0.0294,0.0316,
足立 (Adachi),2017-07-05,03:01～04:00,0.0337,0.0297,0.0317,
足立 (Adachi),2017-07-05,02:01～03:00,0.0336,0.0299,0.0317,
足立 (Adachi),2017-07-05,01:01～02:00,0.0332,0.0295,0.0312,
足立 (Adachi),2017-07-05,00:01～01:00,0.0340,0.0302,0.0320,
足立 (Adachi),2017-07-04,23:01～24:00,0.0350,0.0308,0.0328,
足立 (Adachi),2017-07-04,22:01～23:00,0.0353,0.0311,0.0333,
足立 (Adachi),2017-07-04,21:01～22:00,0.0350,0.0308,0.0325,
足立 (Adachi),2017-07-04,20:01～21:00,0.0344,0.0288,0.0322,
足立 (Adachi),2017-07-04,19:01～20:00,0.0365,0.0312,0.0340,
足立 (Adachi),2017-07-04,18:01～19:00,0.0379,0.0301,0.0338,
足立 (Adachi),2017-07-04,17:01～18:00,0.0332,0.0304,0.0319,
足立 (Adachi),2017-07-04,16:01～17:00,0.0340,0.0301,0.0321,
足立 (Adachi),2017-07-04,15:01～16:00,0.0348,0.0300,0.0323,
足立 (Adachi),2017-07-04,14:01～15:00,0.0344,0.0305,0.0321,
足立 (Adachi),2017-07-04,13:01～14:00,0.0347,0.0306,0.0322,
足立 (Adachi),2017-07-04,12:01～13:00,0.0350,0.0303,0.0326,
足立 (Adachi),2017-07-04,11:01～12:00,0.0359,0.0311,0.0330,
足立 (Adachi),2017-07-04,10:01～11:00,0.0353,0.0308,0.0331,
足立 (Adachi),2017-07-04,09:01～10:00,0.0354,0.0313,0.0335,
足立 (Adachi),2017-07-04,08:01～09:00,0.0360,0.0313,0.0344,
足立 (Adachi),2017-07-04,07:01～08:00,0.0367,0.0324,0.0347,
足立 (Adachi),2017-07-04,06:01～07:00,0.0360,0.0312,0.0331,
足立 (Adachi),2017-07-04,05:01～06:00,0.0356,0.0310,0.0331,
足立 (Adachi),2017-07-04,04:01～05:00,0.0352,0.0308,0.0329,
足立 (Adachi),2017-07-04,03:01～04:00,0.0349,0.0314,0.0331,
足立 (Adachi),2017-07-04,02:01～03:00,0.0353,0.0315,0.0332,
足立 (Adachi),2017-07-04,01:01～02:00,0.0356,0.0321,0.0335,
足立 (Adachi),2017-07-04,00:01～01:00,0.0358,0.0319,0.0336,
足立 (Adachi),2017-07-03,23:01～24:00,0.0353,0.0308,0.0334,
足立 (Adachi),2017-07-03,22:01～23:00,0.0346,0.0310,0.0330,
足立 (Adachi),2017-07-03,21:01～22:00,0.0348,0.0313,0.0332,
足立 (Adachi),2017-07-03,20:01～21:00,0.0349,0.0319,0.0329,
足立 (Adachi),2017-07-03,19:01～20:00,0.0349,0.0313,0.0331,
足立 (Adachi),2017-07-03,18:01～19:00,0.0340,0.0314,0.0328,
足立 (Adachi),2017-07-03,17:01～18:00,0.0356,0.0309,0.0330,
足立 (Adachi),2017-07-03,16:01～17:00,0.0347,0.0311,0.0328,
足立 (Adachi),2017-07-03,15:01～16:00,0.0343,0.0305,0.0327,
足立 (Adachi),2017-07-03,14:01～15:00,0.0351,0.0314,0.0333,
足立 (Adachi),2017-07-03,13:01～14:00,0.0346,0.0303,0.0327,
足立 (Adachi),2017-07-03,12:01～13:00,0.0341,0.0298,0.0324,
足立 (Adachi),2017-07-03,11:01～12:00,0.0338,0.0303,0.0324,
足立 (Adachi),2017-07-03,10:01～11:00,0.0342,0.0299,0.0321,
足立 (Adachi),2017-07-03,09:01～10:00,0.0341,0.0301,0.0321,
足立 (Adachi),2017-07-03,08:01～09:00,0.0340,0.0296,0.0322,
足立 (Adachi),2017-07-03,07:01～08:00,0.0346,0.0302,0.0324,
足立 (Adachi),2017-07-03,06:01～07:00,0.0342,0.0308,0.0324,
足立 (Adachi),2017-07-03,05:01～06:00,0.0352,0.0311,0.0330,
足立 (Adachi),2017-07-03,04:01～05:00,0.0350,0.0304,0.0329,
足立 (Adachi),2017-07-03,03:01～04:00,0.0349,0.0315,0.0330,
足立 (Adachi),2017-07-03,02:01～03:00,0.0359,0.0311,0.0330,
足立 (Adachi),2017-07-03,01:01～02:00,0.0352,0.0315,0.0330,
足立 (Adachi),2017-07-03,00:01～01:00,0.0352,0.0313,0.0331,
